Moses Lake, WA

9:27 AM PDT on October 22, 2017 (GMT -0700)
Grant County International

Weather History for KMWH - December, 2014

Change the Weather History Date:

Monday, December 22, 2014

  Actual Average Record
Temperature  
Mean Temperature 43 °F 28 °F  
Max Temperature 52 °F 34 °F 52 °F (2014)
Min Temperature 34 °F 22 °F -5 °F (1983)
Degree Days  
Heating Degree Days 22 37  
Month to date heating degree days 627 788  
Since 1 July heating degree days 1829 2249  
Cooling Degree Days 0 0  
Month to date cooling degree days 0 0  
Year to date cooling degree days 952 615  
Moisture  
Dew Point 30 °F    
Average Humidity 64    
Maximum Humidity 89    
Minimum Humidity 38    
Precipitation  
Precipitation 0.00 in 0.06 in 0.31 in (1980)
Month to date precipitation 0.81 0.94  
Year to date precipitation 6.81 8.61  
Sea Level Pressure  
Sea Level Pressure 30.27 in    
Wind  
Wind Speed 6 mph (West)    
Max Wind Speed 18 mph    
Max Gust Speed 22 mph    
Visibility 10 miles    
Events      
T = Trace of Precipitation, MM = Missing Value Source: NWS Daily Summary

Daily Weather History Graph

Daily Weather History Graph

Search for Another Location

Airport or City:

Trip Planner

Search our weather history database for the weather conditions in past years. The results will help you decide how hot, cold, wet, or windy it might be!

Date:

Astronomy

Dec. 22, 2014 Rise Set
Actual Time 7:41 AM PST 4:10 PM PST
Civil Twilight 7:05 AM PST 4:46 PM PST
Nautical Twilight 6:26 AM PST 5:25 PM PST
Astronomical Twilight 5:49 AM PST 6:02 PM PST
Moon 7:53 AM PST 5:30 PM PST
Length of Visible Light 9h 40m
Length of Day
8h 28m
New Moon, 1% of the Moon is Illuminated
Dec 22
New Moon
Dec 28
First Quarter
Jan 4
Full
Jan 13
Last Quarter
Jan 20
New

Hourly Weather History & Observations

Time (PST) Temp. Windchill Dew Point Humidity Pressure Visibility Wind Dir Wind Speed Gust Speed Precip Events Conditions
12:52 AM 41.0 °F 33.9 °F 34.0 °F 76% 30.04 in 10.0 mi SW 12.7 mph - N/A   Clear
1:52 AM 39.9 °F 33.9 °F 33.1 °F 77% 30.20 in 10.0 mi SW 9.2 mph - N/A   Clear
2:52 AM 37.0 °F - 32.0 °F 82% 30.07 in 10.0 mi Calm Calm - N/A   Clear
3:52 AM 36.0 °F 33.3 °F 32.0 °F 86% 30.10 in 10.0 mi East 3.5 mph - N/A   Clear
4:52 AM 37.0 °F 30.4 °F 32.0 °F 82% 30.09 in 10.0 mi SSW 9.2 mph - N/A   Clear
5:52 AM 39.0 °F 32.3 °F 30.9 °F 73% 30.11 in 10.0 mi WSW 10.4 mph - N/A   Clear
6:52 AM 37.9 °F 35.5 °F 30.0 °F 73% 30.15 in 10.0 mi South 3.5 mph - N/A   Clear
7:52 AM 44.1 °F 40.1 °F 26.1 °F 49% 30.18 in 10.0 mi WSW 6.9 mph - N/A   Clear
8:52 AM 44.1 °F - 26.1 °F 49% 30.22 in 10.0 mi Calm Calm - N/A   Partly Cloudy
9:52 AM 46.4 °F 43.5 °F 26.6 °F 46% 30.23 in 10.0 mi SW 5.8 mph - N/A   Clear
10:52 AM 50.0 °F - 26.1 °F 39% 30.42 in 10.0 mi West 5.8 mph - N/A   Partly Cloudy
11:52 AM 51.1 °F - 27.0 °F 39% 30.41 in 10.0 mi WNW 12.7 mph - N/A   Scattered Clouds
12:52 PM 51.1 °F - 28.9 °F 43% 30.42 in 10.0 mi NNW 11.5 mph - N/A   Clear
1:52 PM 50.0 °F - 28.9 °F 44% 30.29 in 10.0 mi NW 10.4 mph - N/A   Scattered Clouds
2:52 PM 46.9 °F - 30.9 °F 54% 30.31 in 10.0 mi NW 8.1 mph - N/A   Clear
3:52 PM 45.0 °F 40.1 °F 32.0 °F 60% 30.32 in 10.0 mi NW 9.2 mph - N/A   Clear
4:52 PM 39.9 °F 35.1 °F 30.0 °F 68% 30.35 in 10.0 mi NW 6.9 mph - N/A   Clear
5:52 PM 39.9 °F - 30.0 °F 68% 30.35 in 10.0 mi Calm Calm - N/A   Clear
6:52 PM 37.9 °F 33.5 °F 28.9 °F 70% 30.35 in 10.0 mi WNW 5.8 mph - N/A   Clear
7:52 PM 39.9 °F 36.7 °F 28.9 °F 65% 30.37 in 10.0 mi West 4.6 mph - N/A   Clear
8:52 PM 37.0 °F - 30.9 °F 79% 30.38 in 10.0 mi Calm Calm - N/A   Clear
9:52 PM 37.0 °F - 30.9 °F 79% 30.37 in 10.0 mi Calm Calm - N/A   Partly Cloudy
10:52 PM 37.0 °F - 30.9 °F 79% 30.38 in 10.0 mi Calm Calm - N/A   Scattered Clouds
11:52 PM 37.0 °F - 32.0 °F 82% 30.38 in 10.0 mi Calm Calm - N/A   Mostly Cloudy